FW7166 Weather Reports


Display with metric or nautical units.
time (UTC)temp
F
wind
direction
speed
MPH
gust
MPH
rain 1hr
in
rain 24hr
in
rain mn
in
humidity
%
barometer
mb
20260831234127 54 182 0.0 11.0 0.00 0.00 0.00 97 1009.9
20260831233625 55 182 0.0 11.0 0.00 0.00 0.00 97 1009.7
20260831233125 55 183 0.0 11.0 0.00 0.00 0.00 97 1009.7
20260831232625 55 183 0.0 11.0 0.00 0.00 0.00 97 1009.9
20260831232126 55 184 0.0 11.0 0.00 0.00 0.00 97 1010.0
20260831231624 55 185 0.0 11.0 0.00 0.00 0.00 97 1009.7
20260831231124 55 185 0.0 11.0 0.00 0.00 0.00 97 1009.8
20260831230623 56 186 0.0 11.0 0.00 0.00 0.00 97 1010.0
20260831230122 56 186 0.0 11.0 0.00 0.00 0.00 97 1009.6
20260831225622 56 183 0.0 11.0 0.00 0.00 0.00 97 1010.0
20260831224606 56 180 0.0 11.0 0.00 0.00 0.00 98 1009.9
20260831224104 56 181 0.0 11.0 0.00 0.00 0.00 98 1010.1
20260831223604 56 181 0.0 11.0 0.00 0.00 0.00 98 1010.2
20260831223103 56 182 0.0 11.0 0.00 0.00 0.00 98 1009.9
20260831222047 56 183 0.0 11.0 0.00 0.00 0.00 97 1010.2
20260831221547 56 184 0.0 11.0 0.00 0.00 0.00 97 1010.0
20260831221048 56 185 0.0 11.0 0.00 0.00 0.00 97 1010.0
20260831220547 56 186 0.0 11.0 0.00 0.00 0.00 97 1010.0
20260831220046 56 186 0.0 11.0 0.00 0.00 0.00 97 1009.9
20260831215546 56 187 0.0 11.0 0.00 0.00 0.70 97 1009.9
20260831215047 56 185 0.0 11.0 0.00 0.00 0.70 97 1009.7
20260831214546 56 186 0.0 11.0 0.00 0.00 0.70 97 1009.9
20260831214046 57 186 0.0 11.0 0.00 0.00 0.70 97 1009.8
20260831213031 57 183 0.0 11.0 0.00 0.00 0.70 97 1009.8
20260831212529 57 181 0.0 11.0 0.00 0.00 0.70 97 1009.8
20260831211513 57 180 0.0 11.0 0.00 0.00 0.70 97 1009.8
20260831210458 57 178 0.0 11.0 0.01 0.00 0.70 97 1009.4
20260831205957 57 179 0.0 11.0 0.01 0.00 0.70 97 1009.6
20260831204943 58 174 0.0 11.0 0.01 0.00 0.70 97 1009.6
20260831204443 58 274 0.0 11.0 0.01 0.00 0.70 97 1009.4
20260831203942 58 279 0.0 11.0 0.01 0.00 0.70 97 1009.5
20260831202927 58 273 0.0 11.0 0.01 0.00 0.70 97 1009.5
20260831202426 58 274 0.0 11.0 0.01 0.00 0.70 97 1009.1
20260831201925 58 278 0.0 11.0 0.01 0.00 0.70 97 1009.5
20260831201424 58 284 0.0 11.0 0.01 0.00 0.70 97 1009.5
20260831200923 58 279 0.0 11.0 0.00 0.00 0.69 97 1009.4
20260831200422 58 280 0.0 11.0 0.00 0.00 0.69 97 1009.2
20260831195922 58 277 0.0 11.0 0.00 0.00 0.69 96 1009.4
20260831195421 58 276 0.0 11.0 0.00 0.00 0.69 96 1009.4
20260831194921 58 276 0.0 11.0 0.00 0.00 0.69 96 1009.2
20260831194419 58 281 0.0 11.0 0.00 0.00 0.69 96 1009.1
20260831193404 58 278 0.0 11.0 0.00 0.00 0.69 97 1009.5
20260831191832 58 258 0.0 11.0 0.00 0.00 0.69 96 1009.5
20260831191332 59 252 0.0 11.0 0.00 0.00 0.69 96 1009.4
20260831190832 59 252 0.0 11.0 0.00 0.00 0.69 96 1009.3
20260831190332 59 252 0.0 11.0 0.00 0.00 0.69 96 1009.4
20260831185832 59 252 0.0 11.0 0.00 0.00 0.69 96 1009.1
20260831185331 59 251 0.0 11.0 0.00 0.00 0.69 96 1009.2
20260831184831 59 252 0.0 11.0 0.00 0.00 0.69 96 1009.1
20260831184330 59 251 0.0 11.0 0.00 0.00 0.69 96 1009.3
20260831183830 59 251 0.0 11.0 0.00 0.00 0.69 96 1009.2
20260831182815 59 251 0.0 11.0 0.00 0.00 0.69 96 1009.2
20260831182315 59 251 0.0 11.0 0.00 0.00 0.69 96 1009.3
20260831181815 59 251 0.0 11.0 0.03 0.00 0.69 96 1009.2
20260831181314 59 251 0.0 11.0 0.05 0.00 0.69 96 1009.2
20260831180813 59 251 0.0 11.0 0.12 0.00 0.69 96 1009.2
20260831175757 59 251 0.0 11.0 0.25 0.00 0.69 96 1009.2
20260831175257 59 251 0.0 11.0 0.43 0.00 0.69 96 1008.8
20260831174757 59 251 0.0 11.0 0.49 0.00 0.69 96 1009.0
20260831174257 59 251 0.0 11.0 0.53 0.00 0.69 95 1009.2
20260831173757 59 251 0.0 11.0 0.58 0.00 0.69 95 1008.9
20260831172741 59 251 0.0 11.0 0.63 0.00 0.69 95 1008.8
20260831172241 59 251 0.0 11.0 0.62 0.00 0.68 95 1008.8
20260831171741 59 251 0.0 11.0 0.60 0.00 0.66 94 1009.1
20260831170210 60 220 0.0 11.0 0.48 0.00 0.53 93 1009.1
20260831165709 61 220 0.0 11.0 0.38 0.00 0.44 92 1009.1
20260831165208 61 206 0.0 11.0 0.21 0.00 0.27 91 1009.3
20260831164707 61 179 0.0 11.0 0.17 0.00 0.22 90 1008.9
20260831164207 62 183 1.0 11.0 0.12 0.00 0.17 90 1009.2
20260831163706 62 178 1.0 11.0 0.06 0.00 0.10 90 1008.7
20260831163205 63 170 0.0 11.0 0.03 0.00 0.05 90 1008.8
20260831162705 63 156 1.0 11.0 0.03 0.00 0.05 90 1008.7
20260831162204 63 158 0.0 11.0 0.03 0.00 0.05 91 1008.7
20260831161704 63 154 0.0 11.0 0.03 0.00 0.05 92 1008.8
20260831160647 63 153 0.0 11.0 0.03 0.00 0.05 92 1008.8
20260831160147 63 146 0.0 11.0 0.03 0.00 0.05 92 1009.0
20260831155646 63 152 0.0 11.0 0.03 0.00 0.05 92 1008.9
20260831155146 63 157 0.0 11.0 0.05 0.00 0.05 92 1009.0
20260831154646 63 161 0.0 11.0 0.05 0.00 0.05 91 1008.9
20260831153629 62 169 0.0 11.0 0.03 0.00 0.03 90 1009.2
20260831153129 62 172 0.0 11.0 0.02 0.00 0.02 90 1009.2
20260831152629 62 172 0.0 11.0 0.02 0.00 0.02 89 1009.2
20260831152128 63 173 0.0 11.0 0.02 0.00 0.02 89 1009.2
20260831151628 63 174 0.0 11.0 0.02 0.00 0.02 88 1009.2
20260831150612 63 174 0.0 11.0 0.01 0.00 0.01 86 1009.3
20260831150112 63 176 0.0 11.0 0.01 0.00 0.01 85 1009.3
20260831145611 64 155 2.0 11.0 0.01 0.00 0.01 83 1009.3
20260831145110 64 156 2.0 11.0 0.00 0.00 0.00 82 1009.2
20260831144610 64 138 3.0 11.0 0.00 0.00 0.00 82 1009.4
20260831144109 64 135 0.0 11.0 0.00 0.00 0.00 83 1009.4
20260831143054 64 349 0.0 11.0 0.00 0.00 0.00 84 1009.1
20260831142553 64 342 0.0 11.0 0.00 0.00 0.00 85 1009.3
20260831142053 64 265 0.0 11.0 0.00 0.00 0.00 86 1009.2
20260831141553 63 255 0.0 11.0 0.00 0.00 0.00 86 1009.2
20260831141053 63 352 0.0 11.0 0.00 0.00 0.00 86 1008.8
20260831140552 63 343 0.0 11.0 0.00 0.00 0.00 85 1009.3
20260831140052 63 252 0.0 11.0 0.00 0.00 0.00 87 1009.1
20260831135035 63 351 0.0 11.0 0.00 0.00 0.00 88 1009.5
20260831134535 62 349 0.0 11.0 0.00 0.00 0.00 87 1009.4
20260831134035 62 350 0.0 11.0 0.00 0.00 0.00 86 1009.4
20260831133533 62 347 0.0 11.0 0.00 0.00 0.00 86 1009.2
20260831133033 62 351 0.0 11.0 0.00 0.00 0.00 88 1009.4
20260831132533 62 351 0.0 11.0 0.00 0.00 0.00 88 1009.7
20260831132032 62 353 0.0 11.0 0.00 0.00 0.00 87 1009.6
20260831131531 62 10 0.0 11.0 0.00 0.00 0.00 85 1009.6
20260831131031 62 241 0.0 11.0 0.00 0.00 0.00 85 1009.7
20260831130531 62 241 0.0 11.0 0.00 0.00 0.00 84 1009.7
20260831130030 63 200 0.0 11.0 0.00 0.00 0.00 83 1009.9
20260831125529 63 128 0.0 11.0 0.00 0.00 0.00 83 1010.1
20260831125028 63 101 0.0 11.0 0.00 0.00 0.00 82 1009.9
20260831124527 64 181 0.0 11.0 0.00 0.00 0.00 79 1009.8
20260831124026 64 14 0.0 11.0 0.00 0.00 0.00 77 1009.9
20260831123009 64 180 2.0 11.0 0.00 0.00 0.00 75 1010.1
20260831122509 64 176 0.0 11.0 0.00 0.00 0.00 75 1010.1
20260831122008 65 181 0.0 11.0 0.00 0.00 0.00 74 1010.0
20260831121508 65 196 0.0 11.0 0.00 0.00 0.00 73 1009.7
20260831121008 65 182 1.0 11.0 0.00 0.00 0.00 73 1010.1
20260831115953 65 186 1.0 11.0 0.00 0.00 0.00 72 1009.9
20260831115453 66 173 0.0 11.0 0.00 0.00 0.00 71 1009.8
20260831114952 66 178 1.0 11.0 0.00 0.00 0.00 70 1009.8
20260831114452 66 185 1.0 11.0 0.00 0.00 0.00 69 1010.1
20260831111850 66 150 0.0 11.0 0.00 0.00 0.00 70 1009.8
20260831111350 66 151 0.0 11.0 0.00 0.00 0.00 71 1009.8
20260831110850 66 196 0.0 11.0 0.00 0.00 0.00 71 1009.5
20260831110349 66 142 0.0 11.0 0.00 0.00 0.00 71 1009.7
20260831105849 66 218 0.0 11.0 0.00 0.00 0.00 72 1009.4
20260831104834 66 337 0.0 11.0 0.00 0.00 0.00 72 1009.6
20260831103302 66 94 3.0 11.0 0.00 0.00 0.00 69 1009.9
20260831102801 67 97 0.0 11.0 0.00 0.00 0.00 70 1009.7
20260831102301 67 264 0.0 11.0 0.00 0.00 0.00 71 1009.7
20260831101801 66 229 1.0 11.0 0.00 0.00 0.00 73 1010.0
20260831101301 66 102 3.0 11.0 0.00 0.00 0.00 72 1010.0
20260831100800 65 147 0.0 11.0 0.00 0.00 0.00 74 1009.6
20260831100259 64 226 0.0 11.0 0.00 0.00 0.00 75 1009.9
20260831095758 64 113 0.0 11.0 0.00 0.00 0.00 75 1010.0
20260831095257 64 141 1.0 11.0 0.00 0.00 0.00 76 1009.8
20260831094757 65 155 0.0 11.0 0.00 0.00 0.00 74 1009.8
20260831094257 65 137 0.0 11.0 0.00 0.00 0.00 75 1010.2
20260831093757 64 144 1.0 11.0 0.00 0.00 0.00 75 1010.0
20260831093257 64 138 0.0 11.0 0.00 0.00 0.00 77 1009.9
20260831091726 63 195 0.0 11.0 0.00 0.00 0.00 77 1010.0
20260831091225 63 224 0.0 11.0 0.00 0.00 0.00 78 1009.8
20260831090210 63 204 0.0 11.0 0.00 0.00 0.00 77 1009.5
20260831085153 63 206 1.0 11.0 0.00 0.00 0.00 76 1010.0
20260831084653 64 209 0.0 11.0 0.00 0.00 0.00 76 1009.7
20260831084153 64 193 0.0 11.0 0.00 0.00 0.00 75 1010.2
20260831083652 64 198 0.0 11.0 0.00 0.00 0.00 77 1009.6
20260831082637 63 177 0.0 11.0 0.00 0.00 0.00 80 1009.7
20260831082136 63 116 0.0 11.0 0.00 0.00 0.00 81 1009.9
20260831081635 63 154 0.0 11.0 0.00 0.00 0.00 80 1009.8
20260831081135 62 147 0.0 11.0 0.00 0.00 0.00 82 1009.6
20260831080118 62 144 0.0 11.0 0.00 0.00 0.00 85 1009.8
20260831075617 61 199 1.0 11.0 0.00 0.00 0.00 86 1009.9
20260831075116 61 241 0.0 11.0 0.00 0.00 0.00 88 1009.5
20260831074616 61 231 0.0 11.0 0.00 0.00 0.00 88 1009.8
20260831074115 60 203 0.0 11.0 0.00 0.00 0.00 89 1009.4
20260831073059 60 265 0.0 11.0 0.00 0.00 0.00 91 1009.6
20260831072559 60 227 0.0 11.0 0.00 0.00 0.00 92 1009.6
20260831072059 59 221 0.0 11.0 0.00 0.00 0.00 93 1009.6
20260831071558 59 221 1.0 11.0 0.00 0.00 0.00 94 1009.8
20260831071057 59 202 0.0 11.0 0.00 0.00 0.00 96 1010.1
20260831070557 59 219 0.0 11.0 0.00 0.00 0.00 96 1009.8
20260831070056 59 206 0.0 11.0 0.00 0.00 0.00 96 1009.9
20260831065556 58 159 0.0 11.0 0.00 0.00 0.00 97 1010.1
20260831065055 58 135 0.0 11.0 0.00 0.00 0.00 97 1009.9
20260831064554 58 109 0.0 11.0 0.00 0.00 0.00 97 1010.0
20260831064053 58 107 0.0 11.0 0.00 0.00 0.00 97 1010.2
20260831063037 58 107 0.0 11.0 0.00 0.00 0.00 97 1010.0
20260831062022 58 100 0.0 11.0 0.00 0.00 0.00 97 1009.9
20260831061007 57 100 0.0 11.0 0.00 0.00 0.00 97 1009.8
20260831060505 57 100 0.0 11.0 0.00 0.00 0.00 97 1010.0
20260831060005 57 100 0.0 11.0 0.00 0.00 0.00 97 1009.9
20260831055504 57 100 0.0 11.0 0.00 0.00 0.00 97 1010.1
20260831055003 57 100 0.0 11.0 0.00 0.00 0.00 97 1009.8
20260831054502 57 100 0.0 11.0 0.00 0.00 0.00 97 1009.7
20260831054002 57 100 0.0 11.0 0.00 0.00 0.00 97 1009.8
20260831053501 57 100 0.0 11.0 0.00 0.00 0.00 97 1009.8
20260831053001 57 100 0.0 11.0 0.00 0.00 0.00 97 1009.7
20260831052501 57 100 0.0 11.0 0.00 0.00 0.00 97 1009.9
20260831051446 57 103 0.0 11.0 0.00 0.00 0.00 97 1009.9
20260831050945 57 100 0.0 11.0 0.00 0.00 0.00 97 1009.8
20260831050445 57 98 0.0 11.0 0.00 0.00 0.00 97 1010.0
20260831045945 57 98 0.0 11.0 0.00 0.00 0.00 97 1009.7
20260831044928 57 92 0.0 11.0 0.00 0.00 0.00 96 1009.8
20260831044428 57 92 1.0 11.0 0.00 0.00 0.00 96 1009.6
20260831043927 57 104 1.0 11.0 0.00 0.00 0.00 96 1009.5
20260831043427 56 112 0.0 11.0 0.00 0.00 0.00 96 1009.6
20260831042926 56 112 0.0 11.0 0.00 0.00 0.00 96 1009.8
20260831042427 56 111 0.0 11.0 0.00 0.00 0.00 96 1009.8
20260831041926 56 135 0.0 11.0 0.00 0.00 0.00 96 1009.8
20260831041426 56 135 0.0 11.0 0.00 0.00 0.00 96 1009.7
20260831040408 56 230 0.0 11.0 0.00 0.00 0.00 96 1009.5
20260831035908 56 230 0.0 11.0 0.00 0.00 0.00 96 1009.4
20260831034851 56 230 0.0 11.0 0.00 0.00 0.00 96 1009.5
20260831034352 56 230 0.0 11.0 0.00 0.00 0.00 95 1009.3
20260831033850 56 230 0.0 11.0 0.00 0.00 0.00 95 1009.4
20260831032835 56 230 0.0 11.0 0.00 0.00 0.00 95 1009.4
20260831032335 56 230 0.0 11.0 0.00 0.00 0.00 94 1009.4
20260831030805 57 230 0.0 11.0 0.00 0.00 0.00 94 1009.3
20260831030305 57 235 0.0 11.0 0.00 0.00 0.00 94 1009.4
20260831025804 57 247 0.0 11.0 0.00 0.00 0.00 94 1009.3
20260831025306 57 182 0.0 11.0 0.00 0.00 0.00 94 1009.7
20260831024805 57 204 0.0 11.0 0.00 0.00 0.00 94 1009.3
20260831024304 57 241 0.0 11.0 0.00 0.00 0.00 94 1009.2
20260831023802 57 228 1.0 11.0 0.00 0.00 0.00 94 1009.4
20260831023301 57 175 0.0 11.0 0.00 0.00 0.00 94 1009.7
20260831022802 57 199 1.0 11.0 0.00 0.00 0.00 94 1009.7
20260831021745 57 219 0.0 11.0 0.00 0.00 0.00 94 1009.3
20260831021245 57 220 0.0 11.0 0.00 0.00 0.00 95 1009.4
20260831020744 57 222 0.0 11.0 0.00 0.00 0.00 95 1009.3
20260831020244 57 116 0.0 11.0 0.00 0.00 0.00 95 1009.6
20260831015743 57 92 0.0 11.0 0.00 0.00 0.00 95 1009.6
20260831015242 57 92 0.0 11.0 0.00 0.00 0.00 95 1009.5
20260831014742 57 92 0.0 11.0 0.00 0.00 0.00 95 1009.5
20260831014241 57 92 0.0 11.0 0.00 0.00 0.00 95 1009.5
20260831012710 57 245 0.0 11.0 0.00 0.00 0.00 95 1009.4
20260831012209 57 245 0.0 11.0 0.00 0.00 0.00 95 1009.3
20260831011708 57 245 0.0 11.0 0.00 0.00 0.00 95 1009.5
20260831011207 57 245 0.0 11.0 0.00 0.00 0.00 95 1009.4
20260831010706 57 245 0.0 11.0 0.00 0.00 0.00 95 1009.2
20260831010206 57 121 0.0 11.0 0.00 0.00 0.00 95 1009.5
20260831005706 57 223 0.0 11.0 0.00 0.00 0.00 95 1009.4
20260831004651 58 223 0.0 11.0 0.00 0.00 0.00 95 1009.2
20260831004151 57 224 0.0 11.0 0.00 0.00 0.00 95 1009.2
20260831003651 57 224 0.0 11.0 0.00 0.00 0.00 95 1009.3
20260831003151 57 225 0.0 11.0 0.00 0.00 0.00 95 1009.1
20260831002134 58 211 0.0 11.0 0.00 0.00 0.00 95 1009.4
20260831001633 58 215 0.0 11.0 0.00 0.00 0.00 95 1009.1
20260831001134 58 223 0.0 11.0 0.00 0.00 0.00 95 1009.0
20260831000633 58 223 0.0 11.0 0.00 0.00 0.00 95 1009.2
20260831000132 58 230 0.0 11.0 0.00 0.00 0.00 95 1009.2
20260830235632 58 230 0.0 11.0 0.00 0.00 0.00 95 1009.4
20260830235132 58 231 1.0 11.0 0.00 0.00 0.00 95 1009.3